Date String (YYYY-MM-DD hh:mm:ss) UTC,Instrument flags,Ambient pressure (hPa),Sample flow (lpm),Bypass flow (lpm),Sample temperature (°C),Ambient temperature (°C),ASC tube jacket temperature (°C),LED temperature (°C),Box temperature (°C),Sample RH (%),Span deviation,Mass concentration (μg/m³),Mass concentration (μg/m³),Mass concentration (μg/m³)
DateTimeUTC,F1_M11,P_M11,Q1_M11,Q2_M11,T1_M11,T2_M11,T3_M11,T4_M11,T5_M11,U1_M11,ZSPAN_M11,X0_M11,X2_M11,X1_M11
2022-01-20 07:00:00,,0833.0,4.99,0.00,21.9,21.2,00.0,30.9,23.6,10.8,0001.8,0009.31,0007.08,0006.66
2022-01-20 07:01:00,,0833.0,5.01,0.00,21.9,21.2,00.0,30.9,23.5,10.8,0001.0,0009.46,0007.12,0006.66
2022-01-20 07:02:00,,0833.0,5.00,0.00,21.8,21.2,00.0,30.9,23.5,10.8,0001.0,0009.56,0007.14,0006.67
2022-01-20 07:03:00,,0833.1,4.99,0.00,21.8,21.2,00.0,30.8,23.5,10.8,0000.4,0009.63,0007.15,0006.66
2022-01-20 07:04:00,,0833.0,5.00,0.00,21.8,21.2,00.0,30.8,23.5,10.8,-000.1,0009.70,0007.17,0006.67
2022-01-20 07:05:00,,0832.9,5.01,0.00,21.8,21.5,00.0,30.8,23.5,10.8,-000.3,0009.76,0007.18,0006.68
2022-01-20 07:06:00,,0832.9,4.99,0.00,22.0,22.3,00.0,30.9,23.8,10.7,-000.5,0009.85,0007.22,0006.70
2022-01-20 07:07:00,,0832.9,5.01,0.00,22.1,23.1,00.0,30.9,24.1,10.6,-001.1,0009.88,0007.26,0006.71
2022-01-20 07:08:00,,0832.9,4.99,0.00,22.2,23.1,00.0,31.0,24.2,10.6,-001.1,0009.77,0007.22,0006.70
2022-01-20 07:09:00,,0832.8,5.00,0.00,22.3,22.8,00.0,31.0,24.2,10.6,-001.3,0009.52,0007.17,0006.68
2022-01-20 07:10:00,,0832.8,5.00,0.00,22.3,22.5,00.0,31.0,24.1,10.6,-001.8,0009.46,0007.18,0006.69
2022-01-20 07:11:00,,0832.8,5.01,0.00,22.3,22.3,00.0,31.0,24.1,10.6,-002.0,0009.52,0007.20,0006.69
2022-01-20 07:12:00,,0832.9,5.01,0.00,22.2,22.0,00.0,31.0,24.0,10.5,-001.4,0009.44,0007.19,0006.71
2022-01-20 07:13:00,,0832.9,4.99,0.00,22.2,21.9,00.0,31.0,24.0,10.5,-000.5,0010.00,0007.22,0006.75
2022-01-20 07:14:00,,0832.9,4.99,0.00,22.2,21.8,00.0,31.0,23.9,10.5,-000.1,0009.99,0007.25,0006.80
2022-01-20 07:15:00,,0832.8,5.01,0.00,22.2,21.7,00.0,31.0,23.9,10.6,0000.0,0009.95,0007.25,0006.81
2022-01-20 07:16:00,,0832.8,4.99,0.00,22.2,21.7,00.0,31.0,23.9,10.6,0000.0,0009.82,0007.25,0006.82
2022-01-20 07:17:00,,0832.8,4.99,0.00,22.1,21.6,00.0,31.0,23.9,10.6,0000.0,0009.76,0007.24,0006.84
2022-01-20 07:18:00,,0832.8,5.02,0.00,22.1,21.5,00.0,31.0,23.9,10.5,0000.0,0009.68,0007.25,0006.88
2022-01-20 07:19:00,,0832.8,4.99,0.00,22.1,21.5,00.0,31.0,23.8,10.6,0000.1,0009.70,0007.31,0006.95
2022-01-20 07:20:00,,0832.7,4.99,0.00,22.1,21.5,00.0,31.0,23.8,10.6,-000.2,0009.72,0007.36,0007.01
2022-01-20 07:21:00,,0832.8,5.01,0.00,22.1,21.5,00.0,31.0,23.8,10.6,0000.3,0009.71,0007.40,0007.07
2022-01-20 07:22:00,,0832.8,4.99,0.00,22.0,21.4,00.0,31.0,23.8,10.6,0000.7,0009.62,0007.43,0007.14
2022-01-20 07:23:00,,0832.8,5.01,0.00,22.0,21.4,00.0,31.0,23.7,10.6,0001.2,0009.56,0007.47,0007.19
2022-01-20 07:24:00,,0832.8,5.00,0.00,22.0,21.4,00.0,31.0,23.7,10.6,0001.0,0008.93,0007.47,0007.22
2022-01-20 07:25:00,,0832.7,4.99,0.00,22.0,21.5,00.0,31.0,23.7,10.6,0001.0,0008.89,0007.50,0007.25
2022-01-20 07:26:00,,0832.8,5.00,0.00,22.1,22.2,00.0,31.0,23.9,10.6,-000.3,0008.91,0007.54,0007.30
2022-01-20 07:27:00,,0832.8,5.01,0.00,22.2,22.9,00.0,31.1,24.2,10.5,-000.4,0008.93,0007.57,0007.34
2022-01-20 07:28:00,,0832.8,4.99,0.00,22.4,23.1,00.0,31.1,24.3,10.4,-000.2,0008.99,0007.61,0007.36
2022-01-20 07:29:00,,0832.7,5.00,0.00,22.4,22.8,00.0,31.1,24.3,10.4,-000.7,0009.05,0007.63,0007.37
2022-01-20 07:30:00,,0832.7,5.00,0.00,22.4,22.5,00.0,31.1,24.2,10.4,-000.6,0009.43,0007.65,0007.36
2022-01-20 07:31:00,,0832.7,4.98,0.00,22.3,22.2,00.0,31.1,24.1,10.4,-000.1,0009.61,0007.68,0007.37
2022-01-20 07:32:00,,0832.7,5.01,0.00,22.3,22.1,00.0,31.1,24.0,10.4,0000.0,0009.64,0007.69,0007.38
2022-01-20 07:33:00,,0832.7,4.98,0.00,22.3,21.9,00.0,31.1,24.0,10.4,0000.3,0009.70,0007.71,0007.39
2022-01-20 07:34:00,,0832.6,5.00,0.00,22.2,21.8,00.0,31.1,23.9,10.4,-000.6,0009.79,0007.74,0007.40
2022-01-20 07:35:00,,0832.6,5.00,0.00,22.2,21.7,00.0,31.1,23.8,10.4,-000.9,0009.83,0007.76,0007.41
2022-01-20 07:36:00,,0832.5,4.98,0.00,22.1,21.6,00.0,31.1,23.8,10.5,-000.9,0009.79,0007.74,0007.40
2022-01-20 07:37:00,,0832.6,5.00,0.00,22.1,21.5,00.0,31.1,23.8,10.5,-000.8,0009.74,0007.71,0007.38
2022-01-20 07:38:00,,0832.6,5.00,0.00,22.1,21.4,00.0,31.1,23.6,10.5,-000.9,0009.70,0007.70,0007.37
2022-01-20 07:39:00,,0832.5,5.00,0.00,22.0,21.3,00.0,31.1,23.5,10.5,-000.9,0009.72,0007.69,0007.39
2022-01-20 07:40:00,,0832.5,4.99,0.00,21.9,21.2,00.0,31.0,23.4,10.6,-000.5,0009.87,0007.68,0007.40
2022-01-20 07:41:00,,0832.5,5.01,0.00,21.9,21.1,00.0,31.0,23.5,10.6,-000.5,0009.50,0007.67,0007.40
2022-01-20 07:42:00,,0832.5,4.99,0.00,21.9,21.1,00.0,31.0,23.5,10.6,-000.6,0009.34,0007.64,0007.38
2022-01-20 07:43:00,,0832.5,5.00,0.00,21.9,21.6,00.0,31.0,23.6,10.6,-000.3,0009.30,0007.63,0007.38
2022-01-20 07:44:00,,0832.5,5.01,0.00,22.0,22.4,00.0,31.0,23.9,10.5,-000.2,0009.25,0007.61,0007.37
2022-01-20 07:45:00,,0832.5,4.99,0.00,22.2,23.1,00.0,31.1,24.1,10.4,0000.7,0009.17,0007.57,0007.34
2022-01-20 07:46:00,,0832.5,5.01,0.00,22.3,23.0,00.0,31.1,24.2,10.4,0001.3,0009.09,0007.53,0007.32
2022-01-20 07:47:00,,0832.5,5.00,0.00,22.3,22.8,00.0,31.1,24.2,10.3,0001.4,0009.17,0007.58,0007.34
2022-01-20 07:48:00,,0832.5,5.00,0.00,22.3,22.6,00.0,31.1,24.2,10.3,0001.7,0009.25,0007.61,0007.36
2022-01-20 07:49:00,,0832.5,5.00,0.00,22.3,22.3,00.0,31.1,24.1,10.4,0002.1,0009.23,0007.61,0007.37
2022-01-20 07:50:00,,0832.5,5.01,0.00,22.3,22.2,00.0,31.1,24.0,10.4,0002.3,0009.30,0007.61,0007.36
2022-01-20 07:51:00,,0832.5,5.00,0.00,22.2,22.0,00.0,31.1,24.0,10.4,0002.0,0008.98,0007.57,0007.32
2022-01-20 07:52:00,,0832.5,5.00,0.00,22.2,21.8,00.0,31.1,23.9,10.4,0002.1,0009.05,0007.59,0007.31
2022-01-20 07:53:00,,0832.5,5.00,0.00,22.2,21.6,00.0,31.1,23.9,10.5,0001.9,0009.01,0007.56,0007.29
2022-01-20 07:54:00,,0832.5,5.01,0.00,22.1,21.4,00.0,31.1,23.8,10.5,0001.7,0009.08,0007.57,0007.28
2022-01-20 07:55:00,,0832.5,4.99,0.00,22.1,21.3,00.0,31.1,23.7,10.5,0001.4,0009.05,0007.56,0007.27
2022-01-20 07:56:00,,0832.5,5.01,0.00,22.0,21.2,00.0,31.1,23.7,10.6,0001.1,0009.11,0007.59,0007.29
2022-01-20 07:57:00,,0832.5,5.00,0.00,22.0,21.2,00.0,31.1,23.6,10.6,0000.6,0009.20,0007.62,0007.29
2022-01-20 07:58:00,,0832.5,4.99,0.00,22.0,21.2,00.0,31.0,23.6,10.6,0000.1,0009.18,0007.60,0007.27
2022-01-20 07:59:00,,0832.5,5.01,0.00,22.0,21.2,00.0,31.0,23.6,10.6,0000.1,0009.16,0007.59,0007.28
